STARLINK-1741, 46567

Orbit data source: Space-Track

STARLINK-1741, 46567 is a payload satellite owned by SpaceX/Seattle (US) in LEO that was launched on Tue, 06 Oct 2020 UTC via an FALCON 9 launch vehicle from the Air Force Eastern Test Range (AFETR). Payload-class satellites include a variety of spacecraft equipped with specific instruments for various scientific and technological missions. These include communications satellites like Starlink; space stations such as the ISS; scientific satellites like the Hubble; Earth observation satellites from companies like Planet Labs, Umbra, and HawkEye 360; GPS; miniature CubeSats for education and research; and military/defense satellites.

Loading next visibility...
Identifier
46567, 2020-070AM
Orbit
LEO
Last TLE update
8 hours ago
Origin
Manufacturer
SpaceX/Seattle
Mission
Operational Commercial Communications
Bus & Motor
STARLINK, Unknown motor
Mass
260 kg wet, ~248 kg dry
Launch date (UTC)
2020-10-06 (5 years ago)
Launch vehicle
FALCON 9
Launch site
Air Force Eastern Test Range (AFETR)
Object type
Payload
Rocket body
Debris
Shape & HBR
Box + 1 Pan, 8.86 m
Radar Cross Section
13.562 m², Large (>1 m²)

Expand to show TLE details & history

TLE from 8 hours ago
0 STARLINK-1741
1 46567U 20070AM  25189.96023415  .00000174  00000-0  30580-4 0  9994
2 46567  53.0537 170.7627 0001311  88.4941 271.6198 15.06395114263058
Epoch: 2025-07-08T23:02Z
TLE epoch observation values (Epoch: 2025-07-08T23:02:44.23Z)
Latitude
-0.00004°
Longitude
-102.06935°
Altitude
548.08 km
Speed
7.589 km/s
True Right ascension
11h 23m 03s
True Declination
0° 00' 00"
Sunlit
Object was in daylight at epoch
Visualization orbit readout
Latitude
52.10306°
Longitude
-29.69793°
Altitude
552.63 km
Speed
7.592 km/s
Apparent Right ascension
11h 17m 52s
Apparent Declination
19° 27' 52"
Sunlit
Object is in daylight
Visualization observer readout
Local Sidereal Time
19:31:10
Azimuth
306.734° NW
Elevation
-10.572°
Doppler factor
1
Orbital elements
Apogee altitude
548.405 km
Perigee altitude
546.589 km
Semi-major axis
6,925.634 km
Eccentricity
0.00013
Inclination
53.0537°
RAAN
170.7627°
Arg. of periapsis
88.4941°
True anomaly
Unknown
Mean anomaly
271.6198°
Eccentric anomaly
Unknown
Mean motion
3.76577 °/min
Orbital period
95.6 mins
BSTAR
0.00003058
Loading maneuver chart data...
Loading SW <> Apogee altitude chart data...
Loading historical data...
Loading historical data...
Loading historical data...
Loading historical data...
Loading historical data...
Loading historical data...
Loading historical data...

STARLINK-1741 Visibility forecast

Observer location: undefined°, undefined°

Span
Click to sort rows by Start time (UTC) header in descending order
Start Az.
Max El. time (UTC)
Max El. Az.
Max El.
End time (UTC)
End Az.
6 mins2025-07-09 07:28:41.133Z330.96° NNW2025-07-09 07:31:41.133Z35.674° NE28.648°2025-07-09 07:34:41.133Z91.648° ESE
6 mins2025-07-09 09:08:41.133Z285.627° WNW2025-07-09 09:10:41.133Z241.486° WSW31.833°2025-07-09 09:14:41.133Z158.654° S
6 mins2025-07-10 00:41:41.133Z188.437° SSW2025-07-10 00:43:41.133Z141.406° SSE31.222°2025-07-10 00:47:41.133Z64.853° ENE
5 mins2025-07-10 02:21:41.133Z283.447° WNW2025-07-10 02:23:41.133Z337.741° N29.203°2025-07-10 02:26:41.133Z32.981° NE
|